SCOUT D-1 R/B

基本信息
目录编号:
7228
目录名称:
SCOUT D-1 R/B
国际标识:
1974-013B
轨道中心:
EARTH
物体状态:
在轨
发射日期:
1974-03-09 UTC
国别:
美国 (US)
轨道信息
数据来源: 国际轨道数据
星历时间: 2026-07-13T21:29:25+0800
半长轴: 7120.68km
偏心率: 0.0104057
轨道倾角: 97.784°
近地点辐角: 348.829°
升交点赤经: 27.865°
平近点角: 11.059°
近地点: 668.447km
远地点: 816.639km
周期: 99.665分钟
每日圈数: 14.448429
详细信息
发射场:
AFWTR
轨道高度:
LEO
数据来源:
AOE Integration Group
参考系:
TEME
时间系统:
UTC
历元类型:
SGP4
2D轨道图
3D轨道图
轨道高度分析图
轨道倾角分析图
轨道综合分析图
查看轨道综合分析图